Wind_Speed
6 6 6 6 5 5 5 6 6 7 7 7 7 7 8 8 10 10 10 10 11 10 10 10 10 10 10 10 10 9 9 8 8 8 7 7 6 6 6 5 4 4 3
7 6 6 6 5 5 5 5 6 6 6 6 5 6 7 8 9 9 9 10 10 10 10 9 9 9 10 9 9 8 8 8 7 6 6 5 5 4 4 4 3 3 3
7 7 6 6 5 5 4 4 5 5 6 5 5 6 7 7 8 8 9 10 10 9 9 9 8 9 9 9 9 8 7 7 6 6 5 5 4 3 3 3 3 2 3
7 7 6 6 5 5 4 4 4 5 5 5 5 6 6 6 7 7 8 8 8 8 8 8 8 8 9 8 8 7 6 6 6 5 4 4 3 3 3 2 2 2 3
7 6 6 6 5 5 4 4 4 5 5 5 5 6 6 6 6 7 7 7 7 7 8 7 6 8 7 6 6 5 5 5 4 4 4 3 3 3 2 2 1 2 2
7 6 6 6 6 5 5 4 4 4 5 5 5 5 5 6 6 7 7 7 7 7 7 7 6 7 6 5 5 4 4 4 3 2 2 2 2 1 1 1 1 1 2
8 7 6 6 6 6 4 4 4 5 5 5 5 5 6 6 6 6 7 6 6 6 6 6 6 6 5 4 4 4 4 3 2 2 2 2 1 1 1 0 0 2 2
8 7 7 7 6 6 5 5 5 5 6 6 6 6 6 6 6 6 6 6 6 6 6 6 5 5 4 3 3 3 3 2 2 2 1 1 1 1 1 1 1 1 2
7 7 8 7 7 6 6 6 6 6 6 6 6 6 6 6 6 5 5 5 6 6 5 5 4 4 3 3 3 3 2 2 1 2 1 0 1 1 1 1 1 1 2
8 8 8 8 7 7 7 7 6 7 6 6 6 6 6 6 5 5 5 5 5 5 5 5 5 3 3 3 2 2 2 1 1 1 1 1 1 1 1 2 2 2 3
9 8 8 8 8 8 8 8 7 6 6 6 6 6 6 6 5 5 5 4 4 4 4 4 4 3 3 2 1 1 1 1 1 1 1 1 1 1 2 3 3 3 3
9 9 9 9 9 8 8 8 7 6 5 5 5 5 5 5 5 5 4 4 4 3 3 4 3 3 3 2 1 1 0 1 1 1 1 1 1 2 2 3 4 4 3
10 10 10 9 8 8 8 8 7 6 5 5 4 5 5 5 4 5 5 5 4 3 3 3 3 2 3 2 1 1 1 1 1 1 1 1 2 2 3 3 4 4 4
10 10 10 9 9 8 8 7 7 6 6 5 5 5 5 5 4 5 5 4 3 3 3 2 3 3 2 2 1 0 0 0 1 1 2 3 3 4 5 5 5 5 5
10 10 9 9 8 8 7 7 7 7 6 6 5 5 5 4 4 4 3 3 3 2 2 3 2 2 2 1 1 0 0 1 2 2 2 3 4 5 5 6 6 6 6
9 9 9 8 8 8 7 7 7 7 6 6 6 5 5 5 4 3 2 2 3 2 2 1 1 1 1 0 0 0 1 2 2 3 3 4 5 5 5 6 6 6 6
10 11 10 9 8 8 8 7 7 7 7 6 6 6 5 5 4 3 3 2 2 1 1 1 1 2 1 1 1 1 1 2 3 4 5 5 6 6 6 7 7 7 7
9 10 10 9 9 9 9 9 8 7 7 6 6 6 5 5 4 3 3 2 2 1 1 1 1 1 1 2 2 2 3 3 4 5 5 6 6 6 7 7 7 7 8
9 9 9 9 9 9 8 9 8 8 7 6 6 5 5 5 4 4 3 4 4 3 2 2 2 2 2 2 3 3 3 4 5 5 6 7 7 7 7 8 8 8 9
9 9 9 9 9 9 9 8 8 8 7 6 6 6 5 5 5 5 5 5 4 4 3 3 3 2 3 3 3 4 4 5 5 6 6 7 8 8 9 9 9 10 10
9 8 8 9 9 8 8 8 8 9 7 7 6 6 5 5 5 5 5 4 4 4 4 4 3 4 3 4 4 4 4 5 6 6 7 8 8 8 9 9 10 11 11
7 7 8 8 8 8 8 8 8 8 7 6 5 5 4 4 4 5 5 4 4 4 4 4 4 4 5 5 5 5 6 7 7 7 7 8 8 9 9 10 11 11 12
6 6 6 7 7 8 7 7 7 7 7 7 5 5 5 5 6 5 5 4 5 5 5 6 6 6 6 7 7 7 7 8 8 8 8 8 9 9 10 10 10 11 12
5 6 6 6 7 7 7 7 7 7 7 7 7 6 6 6 7 6 5 5 5 5 6 7 7 8 8 8 8 8 8 8 8 9 9 9 10 10 10 11 11 12 13
5 5 6 6 6 7 8 7 7 7 7 8 8 7 7 6 6 6 6 6 6 7 7 7 8 8 9 9 9 9 9 9 9 10 10 10 11 11 12 12 13 13 13
5 5 6 6 6 7 8 8 8 8 7 8 8 8 8 7 7 7 7 7 8 9 9 9 9 9 9 9 10 10 10 10 10 11 11 12 12 13 12 13 13 13 14
Wind_Direction
67 71 72 80 83 82 87 94 91 89 91 93 94 95 104 115 124 120 118 124 125 127 130 131 135 134 132 131 130 127 129 128 125 131 132 132 137 140 143 144 144 150 152
66 69 70 74 76 77 79 82 77 84 89 92 91 101 111 118 123 124 121 125 126 130 130 130 132 130 128 126 126 124 124 127 124 128 128 130 136 136 139 142 153 157 153
63 62 63 70 75 72 74 79 76 85 89 92 89 104 110 120 121 125 128 128 128 132 135 135 134 133 131 127 125 122 121 125 123 123 121 118 124 137 142 148 163 170 173
64 60 62 68 70 68 69 68 69 84 88 95 96 103 107 113 119 118 120 126 125 130 134 137 137 135 132 130 126 123 121 124 125 126 122 117 109 117 138 156 174 180 181
58 57 62 63 59 59 64 69 75 82 86 100 101 105 108 108 115 119 118 125 130 134 136 138 140 137 133 130 132 134 128 127 131 129 125 124 118 113 116 139 159 182 200
53 56 61 60 55 54 57 67 82 88 92 100 100 104 106 113 115 123 125 127 132 139 140 140 140 141 136 133 137 136 126 130 138 140 133 130 137 127 116 126 167 197 233
52 52 54 54 56 57 58 75 84 97 104 107 102 100 108 117 120 120 129 129 129 132 136 138 141 141 138 143 144 143 137 135 134 148 142 136 146 160 144 138 154 219 232
51 48 51 50 54 60 71 82 89 100 103 108 108 104 109 113 117 120 126 129 128 133 144 150 147 143 143 148 143 150 141 145 144 138 128 155 183 196 217 263 286 265 235
47 45 47 49 53 62 74 81 87 96 102 107 102 102 107 115 121 123 124 127 127 132 148 155 149 147 149 145 142 145 143 150 145 137 174 213 216 207 264 270 290 281 246
46 45 45 49 57 63 66 76 85 94 100 102 98 97 99 108 118 127 131 128 137 143 152 156 158 149 149 150 157 155 151 160 174 189 206 246 230 242 285 292 293 280 260
47 46 45 46 53 56 62 74 83 87 91 94 93 95 94 97 105 118 129 127 140 154 159 162 165 148 141 146 154 163 181 183 178 197 211 240 253 281 295 306 304 294 272
49 49 51 53 56 59 61 65 72 80 81 86 89 90 91 91 98 115 126 131 139 153 159 163 163 158 149 136 124 112 176 161 180 195 225 252 261 279 295 303 303 301 295
48 49 52 53 53 60 63 64 67 73 81 85 88 88 86 86 89 112 123 127 122 130 151 157 142 136 127 123 113 74 121 123 227 240 258 272 283 286 292 302 301 296 295
46 47 51 51 51 58 62 63 63 69 74 80 81 80 83 81 81 111 118 113 116 119 125 129 141 152 147 141 108 90 109 346 332 274 260 278 285 288 290 293 294 293 291
46 47 47 49 51 57 60 57 58 62 67 71 76 76 75 72 84 111 108 103 110 111 109 97 108 138 146 147 200 343 335 298 325 321 298 295 299 298 290 287 289 289 288
46 47 47 49 51 56 56 54 58 61 63 65 68 72 68 67 84 93 91 93 89 94 95 101 108 95 82 68 157 289 293 307 310 308 312 309 309 305 300 293 291 290 286
50 47 50 52 52 54 54 54 59 60 64 64 62 62 62 64 73 69 63 54 46 61 87 84 79 60 46 19 354 320 311 309 304 301 303 302 305 305 307 306 297 290 289
48 48 50 51 52 53 54 53 56 58 59 61 58 55 57 55 51 55 50 40 36 45 77 51 55 39 359 351 350 330 318 310 306 306 307 308 309 302 301 303 301 296 294
43 48 52 53 53 50 50 49 52 53 52 56 54 50 50 42 48 54 51 54 55 51 42 33 31 21 343 324 317 316 316 317 317 318 316 311 311 308 305 303 299 297 296
42 46 49 52 51 47 45 46 46 45 48 53 53 49 47 41 48 46 48 51 43 37 33 28 29 13 346 336 328 328 324 325 320 318 316 311 311 312 309 306 305 300 299
42 43 47 47 45 42 40 40 40 42 45 47 49 48 40 42 44 36 41 47 35 22 22 22 16 358 343 340 340 339 335 329 328 325 324 319 316 315 313 310 307 305 302
37 36 37 39 39 36 35 36 35 37 41 45 43 38 31 27 30 27 27 24 20 13 12 5 1 355 344 340 339 335 330 324 321 326 327 326 322 320 319 315 309 307 304
27 24 24 28 27 27 30 31 25 27 29 24 18 18 14 15 13 11 6 359 358 356 355 350 346 343 340 339 340 333 330 326 320 324 322 322 322 323 323 320 314 311 309
13 15 14 16 18 19 16 12 11 17 13 7 3 6 9 6 2 356 349 345 343 341 340 338 337 335 334 332 334 333 330 328 323 320 321 323 321 319 318 316 315 313 312
349 358 4 3 2 4 3 3 1 3 360 355 351 350 355 356 346 339 336 335 333 333 330 328 329 328 328 325 325 326 325 322 321 322 322 322 321 319 316 317 317 313 314
336 341 346 349 348 347 349 354 354 349 350 346 343 342 341 337 332 331 331 330 327 326 323 319 322 324 324 322 320 318 316 316 318 319 321 323 320 318 318 318 316 315 313
Height
5865 5865 5865 5864 5864 5864 5864 5864 5864 5863 5863 5863 5863 5863 5863 5863 5864 5866 5866 5867 5869 5870 5871 5872 5874 5875 5876 5878 5879 5880 5881 5882 5883 5885 5885 5886 5887 5888 5889 5890 5891 5892 5892
5867 5866 5866 5866 5866 5866 5866 5866 5865 5865 5865 5865 5865 5865 5864 5865 5866 5867 5868 5868 5870 5871 5873 5874 5875 5877 5878 5879 5880 5881 5883 5884 5885 5886 5887 5887 5888 5889 5890 5890 5891 5892 5893
5868 5867 5867 5867 5867 5867 5867 5867 5867 5867 5866 5866 5866 5866 5866 5867 5867 5868 5869 5870 5871 5873 5874 5876 5877 5878 5879 5880 5881 5883 5884 5885 5886 5887 5888 5888 5889 5889 5890 5891 5892 5892 5893
5869 5869 5869 5868 5868 5868 5868 5868 5868 5868 5868 5868 5868 5868 5868 5868 5869 5870 5871 5872 5873 5874 5876 5877 5878 5879 5880 5881 5882 5884 5885 5886 5887 5887 5888 5889 5890 5890 5890 5891 5892 5892 5893
5870 5870 5870 5869 5869 5869 5869 5869 5869 5869 5869 5869 5869 5869 5870 5870 5871 5871 5872 5873 5874 5875 5877 5878 5879 5880 5881 5883 5883 5884 5885 5886 5887 5888 5889 5890 5890 5890 5891 5891 5892 5892 5893
5872 5871 5871 5871 5870 5870 5870 5870 5870 5870 5870 5870 5870 5871 5871 5872 5872 5873 5874 5875 5876 5877 5878 5879 5880 5881 5882 5883 5884 5885 5886 5887 5888 5888 5889 5890 5890 5891 5891 5891 5892 5892 5893
5874 5873 5872 5872 5871 5871 5871 5871 5871 5871 5871 5871 5872 5872 5873 5873 5874 5875 5876 5876 5877 5878 5879 5879 5880 5882 5883 5884 5885 5886 5886 5887 5888 5889 5889 5890 5890 5891 5891 5891 5892 5892 5893
5875 5875 5874 5873 5872 5872 5872 5872 5872 5872 5872 5873 5873 5873 5874 5874 5875 5876 5877 5878 5878 5879 5880 5881 5881 5883 5884 5884 5885 5886 5887 5888 5888 5889 5890 5890 5891 5891 5891 5892 5892 5892 5892
5877 5876 5875 5874 5874 5873 5873 5873 5873 5873 5874 5874 5874 5875 5875 5876 5876 5877 5878 5879 5879 5880 5881 5882 5883 5883 5884 5885 5886 5886 5887 5888 5888 5889 5890 5890 5891 5891 5891 5892 5892 5892 5892
5878 5878 5877 5876 5875 5875 5875 5875 5875 5875 5875 5875 5876 5876 5876 5877 5878 5878 5879 5879 5880 5881 5882 5883 5883 5884 5885 5886 5886 5887 5887 5888 5889 5889 5890 5890 5891 5891 5891 5891 5891 5891 5892
5880 5879 5879 5878 5877 5877 5876 5876 5876 5876 5876 5877 5877 5877 5878 5878 5878 5879 5880 5880 5881 5882 5882 5883 5884 5885 5885 5886 5887 5887 5888 5888 5889 5889 5890 5890 5890 5891 5891 5891 5891 5891 5891
5882 5882 5881 5880 5879 5879 5879 5878 5878 5877 5878 5878 5879 5879 5879 5879 5880 5880 5880 5881 5881 5882 5883 5884 5884 5885 5886 5886 5887 5887 5888 5888 5889 5889 5889 5890 5890 5890 5890 5890 5890 5890 5890
5884 5884 5883 5882 5881 5881 5880 5880 5880 5880 5880 5880 5880 5880 5880 5881 5881 5881 5882 5882 5882 5883 5883 5884 5885 5885 5886 5886 5887 5887 5888 5888 5888 5889 5889 5889 5889 5889 5890 5890 5890 5890 5890
5886 5885 5885 5884 5883 5883 5882 5882 5882 5882 5881 5881 5881 5882 5882 5882 5882 5882 5883 5883 5883 5884 5884 5885 5885 5886 5886 5887 5887 5888 5888 5888 5889 5889 5889 5889 5889 5889 5889 5889 5889 5889 5889
5888 5887 5887 5886 5885 5885 5885 5884 5884 5883 5883 5883 5883 5883 5883 5883 5883 5883 5884 5884 5884 5884 5885 5886 5886 5886 5886 5886 5887 5887 5888 5888 5888 5888 5888 5888 5888 5888 5888 5888 5888 5888 5888
5890 5889 5888 5888 5887 5887 5886 5886 5886 5885 5885 5884 5884 5883 5884 5884 5884 5884 5885 5885 5884 5885 5886 5886 5886 5886 5887 5887 5887 5887 5888 5888 5888 5888 5888 5888 5888 5887 5887 5887 5886 5886 5886
5892 5891 5890 5889 5889 5889 5888 5888 5887 5887 5886 5886 5885 5885 5885 5885 5885 5885 5886 5886 5886 5886 5886 5886 5886 5886 5887 5887 5887 5887 5887 5887 5887 5887 5887 5887 5886 5886 5886 5885 5885 5885 5884
5893 5893 5893 5892 5891 5891 5891 5890 5889 5889 5888 5887 5887 5887 5886 5886 5886 5886 5886 5886 5886 5886 5886 5886 5886 5886 5887 5886 5887 5887 5886 5886 5886 5886 5886 5885 5885 5885 5884 5884 5883 5883 5883
5896 5895 5895 5894 5893 5893 5892 5892 5891 5891 5890 5889 5889 5888 5888 5887 5887 5887 5887 5887 5887 5886 5886 5886 5886 5886 5886 5886 5886 5886 5886 5886 5885 5885 5885 5884 5884 5883 5883 5882 5882 5881 5881
5898 5897 5897 5896 5896 5895 5894 5894 5893 5892 5891 5891 5890 5890 5889 5889 5888 5888 5887 5887 5887 5887 5887 5886 5886 5886 5886 5886 5886 5885 5885 5885 5884 5884 5884 5883 5882 5882 5881 5881 5880 5879 5879
5900 5899 5899 5898 5898 5897 5896 5895 5895 5894 5893 5892 5891 5891 5890 5890 5890 5889 5888 5888 5888 5887 5887 5886 5886 5886 5886 5885 5885 5885 5884 5884 5883 5883 5882 5882 5881 5880 5880 5879 5878 5877 5876
5902 5901 5900 5900 5899 5898 5898 5897 5896 5895 5894 5893 5892 5892 5891 5891 5891 5890 5890 5889 5888 5888 5887 5887 5886 5886 5886 5885 5885 5884 5884 5884 5883 5882 5881 5880 5879 5878 5878 5877 5876 5875 5874
5903 5902 5902 5901 5900 5900 5899 5898 5897 5896 5895 5895 5893 5893 5892 5892 5891 5891 5890 5890 5889 5888 5888 5887 5886 5886 5885 5885 5884 5884 5883 5882 5881 5881 5879 5879 5878 5877 5876 5875 5874 5872 5871
5904 5903 5902 5901 5901 5900 5899 5899 5898 5897 5896 5896 5894 5893 5893 5892 5891 5891 5890 5890 5889 5888 5887 5887 5886 5885 5885 5884 5883 5882 5882 5881 5880 5879 5878 5877 5876 5875 5874 5873 5871 5870 5869
5905 5904 5903 5902 5902 5901 5900 5899 5898 5897 5897 5896 5895 5894 5893 5892 5891 5891 5890 5889 5888 5888 5887 5886 5885 5884 5883 5882 5882 5881 5880 5879 5878 5877 5876 5875 5874 5873 5871 5870 5869 5867 5866
5905 5904 5903 5903 5902 5901 5900 5899 5898 5897 5897 5896 5895 5894 5893 5892 5891 5890 5889 5889 5888 5887 5886 5885 5884 5883 5882 5881 5880 5879 5878 5877 5876 5875 5874 5873 5872 5870 5868 5867 5866 5864 5863